User: anonymous   Login
Location: Narvik
(68.4360°N, 17.4370°E)
Time: 19:43:58
(UTC+02:00)
Language:

QB50P2 - Orbit

View from above orbital plane
View from above orbital plane
View from above satellite
View from above satellite

Ground track
Ground track

The orbit data is extracted from the following two-line orbital elements,

1 40032U 14033Y   19287.40923542  .00000244  00000-0  32251-4 0  9993
2 40032  97.8953 204.8483 0012721  34.2870 325.9165 14.88529140288751
Epoch (UTC): 14 October 2019 09:49:17
Eccentricity: 0.0012721
inclination: 97.8953°
perigee height: 593 km
apogee height: 611 km
right ascension of ascending node: 204.8483°
argument of perigee: 34.2870°
revolutions per day: 14.88529140
mean anomaly at epoch: 325.9165°
orbit number at epoch: 28875

The dashed part of the orbit path shows where the satellite is in the earth's shadow,  

DLR